Showing default

KUIPER-00297, 68596

Orbit data source: Space-Track

KUIPER-00297, 68596 is a payload satellite owned by Kuiper Systems (US) in LEO that was launched on Sat, 04 Apr 2026 UTC via an ATLAS V 551 launch vehicle from the Air Force Eastern Test Range (AFETR). Payload-class satellites include a variety of spacecraft equipped with specific instruments for various scientific and technological missions. These include communications satellites like Starlink; space stations such as the ISS; scientific satellites like the Hubble; Earth observation satellites from companies like Planet Labs, Umbra, and HawkEye 360; GPS; miniature CubeSats for education and research; and military/defense satellites.

Loading next visibility...
Identifier
68596, 2026-072Z
Orbit
LEO
Country
Flag of USUS
Related business
Manufacturer
Kuiper Systems
Mission
Operational spacecraft
Bus & Motor
KUIPER, Unknown motor
Mass
~490 kg wet, ~490 kg dry
Launch date (UTC)
2026-04-04 (2 months ago)
Launch vehicle
ATLAS V 551
Launch site
Air Force Eastern Test Range (AFETR)
Object type
Payload
Rocket body
Debris
Shape & HBR
Unknown shape, 3.4 m
Radar Cross Section
Large (>1 m²)

Expand to show TLE details & history
Last TLE update: 11 hours ago

TLE from 11 hours ago
0 KUIPER-00297
1 68596U 26072Z   26150.16668980 -.01727545  00000-0 -15204+0 0  9993
2 68596  51.8876 267.1792 0008611 336.3622 131.3573 14.99585705  5221
Epoch: 2026-05-30T04:00Z
TLE epoch observation values (Epoch: 2026-05-30T04:00:01.998Z)
Latitude
48.66626°
Longitude
76.98661°
Altitude
577.523 km
Speed
7.576 km/s
True Right ascension
01h 38m 43s
True Declination
48° 29' 28"
Sunlit
Object was in daylight at epoch
Visualization orbit readout
Latitude
Unknown
Longitude
Unknown
Altitude
Unknown
Speed
Unknown
Apparent Right ascension
Unknown
Apparent Declination
Unknown
Sunlit
N/A
Visualization observer readout
Local Sidereal Time
00:42:39
Azimuth
Unknown
Elevation
Unknown
Doppler factor
Unknown
Orbital elements
Apogee altitude
574.614 km
Perigee altitude
562.651 km
Semi-major axis
6,946.77 km
Eccentricity
0.00086
Inclination
51.8876°
RAAN
267.1792°
Arg. of periapsis
336.3622°
True anomaly
131.43131°
Mean anomaly
131.3573°
Eccentric anomaly
131.39431°
Mean motion
3.7486 °/min
Orbital period
96.04 mins
BSTAR
-0.15204
Loading maneuver chart data...
Computing Atmospheric mass density...
Loading historical data...
Loading historical data...
Loading historical data...
Loading historical data...
Loading historical data...
Loading historical data...
Loading historical data...

Documentation

Showing up to 5 results
|